Location: Unspecified
(0.0000°N, 0.0000°E)
Time: 18:06:49
(UTC+00:00)

Vanguard 3 - Pass Details

Date: 09 February 2023
Orbit: 509 x 3249 km, 33.3° (Epoch: 20 March)

Event Time Altitude Azimuth Distance (km) Brightness Sun altitude
Rises 20:33:48 0° 333° (NNW) 4,979 11.3 -33.6°
Reaches altitude 10° 20:38:43 10° 353° (N) 4,511 10.8 -34.8°
Enters shadow 20:41:39 14° 7° (N) 4,437 10.6 -35.5°
Maximum altitude 20:46:28 17° 29° (NNE) 4,635 - -36.6°
Drops below altitude 10° 20:56:09 10° 64° (ENE) 5,835 - -38.9°
Sets 21:04:08 0° 81° (E) 7,143 - -40.8°
